This is the latest recevied weather packets stored in our database for station/object DL1MMS-10. If no packets are shown the sender has not sent any weather packets the latest 10 day(s).
| Time | Temp. | Humidity | Pressure | Rain* | Wind** | Luminosity | Snow |
|---|---|---|---|---|---|---|---|
| 1777740245 | 30.56° C | 20% | 1018.7 hPa | 0 mm | - | - | - |
| 1777739945 | 31.67° C | 20% | 1018.8 hPa | 0 mm | - | - | - |
| 1777739645 | 32.78° C | 19% | 1018.8 hPa | 0 mm | - | - | - |
| 1777739345 | 33.89° C | 18% | 1018.8 hPa | 0 mm | - | - | - |
| 1777739044 | 34.44° C | 18% | 1018.9 hPa | 0 mm | - | - | - |
| 1777738744 | 35° C | 18% | 1019 hPa | 0 mm | - | - | - |
| 1777738444 | 35.56° C | 17% | 1019 hPa | 0 mm | - | - | - |
| 1777738143 | 36.67° C | 17% | 1019 hPa | 0 mm | - | - | - |
| 1777737843 | 37.78° C | 15% | 1019.1 hPa | 0 mm | - | - | - |
| 1777737543 | 38.33° C | 17% | 1019.2 hPa | 0 mm | - | - | - |
| 1777737243 | 38.33° C | 17% | 1019.1 hPa | 0 mm | - | - | - |
| 1777736942 | 38.89° C | 17% | 1019.1 hPa | 0 mm | - | - | - |
| 1777736642 | 38.33° C | 17% | 1019.1 hPa | 0 mm | - | - | - |
| 1777736342 | 38.33° C | 17% | 1019.2 hPa | 0 mm | - | - | - |
| 1777736041 | 38.89° C | 15% | 1019.2 hPa | 0 mm | - | - | - |
| 1777735741 | 39.44° C | 16% | 1019.2 hPa | 0 mm | - | - | - |
| 1777735441 | 38.89° C | 17% | 1019.4 hPa | 0 mm | - | - | - |
| 1777735141 | 38.33° C | 17% | 1019.3 hPa | 0 mm | - | - | - |
| 1777734840 | 38.33° C | 17% | 1019.4 hPa | 0 mm | - | - | - |
| 1777734540 | 38.33° C | 17% | 1019.6 hPa | 0 mm | - | - | - |
| 1777734240 | 38.33° C | 17% | 1019.6 hPa | 0 mm | - | - | - |
| 1777733939 | 38.33° C | 17% | 1019.7 hPa | 0 mm | - | - | - |
| 1777733639 | 38.89° C | 17% | 1019.7 hPa | 0 mm | - | - | - |
| 1777733339 | 39.44° C | 17% | 1019.7 hPa | 0 mm | - | - | - |
| 1777733039 | 39.44° C | 17% | 1019.8 hPa | 0 mm | - | - | - |
* Rain latest hour (hover to see other rain measurements)
** Current wind speed in m/s (hover to see current wind gust speed)